D1965 Weather Reports


Display with metric or nautical units.
time (UTC)temp
F
wind
direction
speed
MPH
gust
MPH
rain 1hr
in
rain 24hr
in
rain mn
in
humidity
%
barometer
mb
20220707043504 58 270 1.0 4.0 0.00 0.00 0.00 93 1031.5
20220707043004 58 263 1.0 4.0 0.00 0.00 0.00 93 1031.3
20220707042503 58 263 2.0 4.0 0.00 0.00 0.00 93 1031.3
20220707042004 58 266 2.0 4.0 0.00 0.00 0.00 93 1031.4
20220707041503 58 265 1.0 4.0 0.00 0.00 0.00 93 1031.4
20220707041004 58 269 1.0 4.0 0.00 0.00 0.00 93 1031.3
20220707040504 58 271 1.0 7.0 0.00 0.00 0.00 93 1031.3
20220707040004 58 273 1.0 7.0 0.00 0.00 0.00 93 1031.1
20220707035503 58 275 1.0 4.0 0.00 0.00 0.00 93 1031.0
20220707035005 58 273 1.0 4.0 0.00 0.00 0.00 93 1030.8
20220707034503 58 287 1.0 6.0 0.00 0.00 0.00 93 1030.8
20220707034005 58 299 1.0 6.0 0.00 0.00 0.00 93 1030.7
20220707033504 58 290 1.0 4.0 0.00 0.00 0.00 93 1030.6
20220707033004 58 288 1.0 4.0 0.00 0.00 0.00 93 1030.6
20220707032503 58 288 1.0 4.0 0.00 0.00 0.00 93 1030.7
20220707032004 58 289 1.0 4.0 0.00 0.00 0.00 93 1030.7
20220707031503 58 289 0.0 3.0 0.00 0.00 0.00 93 1030.6
20220707031004 58 287 0.0 2.0 0.00 0.00 0.00 93 1030.6
20220707030503 58 294 0.0 1.0 0.00 0.00 0.00 93 1030.5
20220707030005 58 294 0.0 2.0 0.00 0.00 0.00 93 1030.5
20220707025504 58 293 0.0 2.0 0.00 0.00 0.00 93 1030.5
20220707025004 58 292 0.0 2.0 0.00 0.00 0.00 93 1030.6
20220707024503 58 292 0.0 2.0 0.00 0.00 0.00 93 1030.6
20220707024004 58 283 0.0 3.0 0.00 0.00 0.00 93 1030.7
20220707023504 58 283 0.0 4.0 0.00 0.00 0.00 93 1030.6
20220707023004 58 290 1.0 4.0 0.00 0.00 0.00 93 1030.6
20220707022504 58 293 1.0 2.0 0.00 0.00 0.00 93 1030.7
20220707022004 58 295 1.0 3.0 0.00 0.00 0.00 93 1030.6
20220707021503 58 298 0.0 3.0 0.00 0.00 0.00 93 1030.7
20220707021005 58 301 1.0 2.0 0.00 0.00 0.00 93 1030.5
20220707020503 58 286 1.0 4.0 0.00 0.00 0.00 93 1030.7
20220707020004 58 270 2.0 4.0 0.00 0.00 0.00 93 1030.6
20220707015503 58 266 2.0 7.0 0.00 0.00 0.00 93 1030.8
20220707015005 58 270 2.0 7.0 0.00 0.00 0.00 93 1030.8
20220707014503 58 270 1.0 3.0 0.00 0.00 0.00 93 1030.8
20220707014005 58 270 1.0 3.0 0.00 0.00 0.00 93 1030.9
20220707013503 58 275 1.0 6.0 0.00 0.00 0.00 93 1030.8
20220707013004 58 281 2.0 6.0 0.00 0.00 0.00 93 1030.9
20220707012503 58 287 2.0 4.0 0.00 0.00 0.00 93 1030.9
20220707012004 58 288 2.0 5.0 0.00 0.00 0.00 93 1030.8
20220707011503 58 276 2.0 5.0 0.00 0.00 0.00 93 1030.8
20220707011004 58 271 2.0 4.0 0.00 0.00 0.00 93 1030.8
20220707010504 58 278 1.0 3.0 0.00 0.00 0.00 93 1030.8
20220707010004 58 0 0.0 0.0 0.00 0.00 0.00 93 1030.8
20220707005503 58 0 0.0 0.0 0.00 0.00 0.00 93 1030.7
20220707005005 58 0 0.0 0.0 0.00 0.00 0.00 93 1030.8
20220707004504 58 0 0.0 0.0 0.00 0.00 0.00 93 1030.8
20220707004004 58 0 0.0 0.0 0.00 0.00 0.00 93 1030.8
20220707003503 58 0 0.0 0.0 0.00 0.00 0.00 93 1030.8
20220707003004 58 265 0.0 2.0 0.00 0.00 0.00 93 1030.8
20220707002503 58 270 1.0 3.0 0.00 0.00 0.00 93 1030.7
20220707002003 58 267 1.0 4.0 0.00 0.00 0.00 93 1030.7
20220707001503 58 268 2.0 4.0 0.00 0.00 0.00 93 1030.6
20220707001004 58 270 2.0 6.0 0.00 0.00 0.00 92 1030.6
20220707000504 58 270 3.0 7.0 0.00 0.00 0.00 92 1030.6
20220707000005 58 266 2.0 7.0 0.00 0.00 0.00 92 1030.6
20220706235503 58 266 2.0 6.0 0.00 0.00 0.00 92 1030.7
20220706235004 58 273 2.0 7.0 0.00 0.00 0.00 93 1030.6
20220706234503 58 272 3.0 7.0 0.00 0.00 0.00 92 1030.5
20220706234004 58 272 3.0 8.0 0.00 0.00 0.00 92 1030.4
20220706233503 58 275 3.0 8.0 0.00 0.00 0.00 92 1030.3
20220706233004 58 277 3.0 6.0 0.00 0.00 0.00 92 1030.2
20220706232503 58 272 3.0 7.0 0.00 0.00 0.00 92 1030.4
20220706232004 58 270 3.0 7.0 0.00 0.00 0.00 92 1030.4
20220706231503 58 274 3.0 6.0 0.00 0.00 0.00 92 1030.5
20220706231003 58 272 2.0 6.0 0.00 0.00 0.00 92 1030.5
20220706230503 58 271 2.0 6.0 0.00 0.00 0.00 92 1030.4
20220706230003 58 271 2.0 6.0 0.00 0.00 0.00 92 1030.6
20220706225503 58 270 2.0 6.0 0.00 0.00 0.00 92 1030.6
20220706225003 58 270 2.0 4.0 0.00 0.00 0.00 92 1030.4
20220706224504 58 273 2.0 4.0 0.00 0.00 0.00 92 1030.4
20220706224004 58 274 2.0 7.0 0.00 0.00 0.00 92 1030.4
20220706223503 58 271 2.0 7.0 0.00 0.00 0.00 92 1030.5
20220706223004 58 267 2.0 4.0 0.00 0.00 0.00 92 1030.5
20220706222503 58 270 2.0 5.0 0.00 0.00 0.00 92 1030.5
20220706222004 58 274 2.0 5.0 0.00 0.00 0.00 92 1030.4
20220706221502 58 271 1.0 4.0 0.00 0.00 0.00 92 1030.4
20220706221005 58 271 1.0 4.0 0.00 0.00 0.00 92 1030.3
20220706220503 58 273 2.0 6.0 0.00 0.00 0.00 92 1030.2
20220706220004 58 276 2.0 6.0 0.00 0.00 0.00 92 1030.1
20220706215504 59 275 2.0 7.0 0.00 0.00 0.00 91 1030.2
20220706215004 59 271 3.0 7.0 0.00 0.00 0.00 91 1030.1
20220706214504 59 270 2.0 7.0 0.00 0.00 0.00 91 1030.1
20220706214004 59 273 2.0 7.0 0.00 0.00 0.00 91 1030.1
20220706213503 59 270 2.0 6.0 0.00 0.00 0.00 91 1030.0
20220706213004 59 269 3.0 7.0 0.00 0.00 0.00 91 1030.0
20220706212503 59 276 3.0 8.0 0.00 0.00 0.00 90 1030.0
20220706212004 59 280 3.0 8.0 0.00 0.00 0.00 90 1029.8
20220706211503 59 279 3.0 8.0 0.00 0.00 0.00 90 1029.9
20220706211004 60 279 3.0 7.0 0.00 0.00 0.00 89 1029.8
20220706044505 57 264 2.0 6.0 0.00 0.00 0.00 89 1030.4
20220706044004 57 267 2.0 6.0 0.00 0.00 0.00 89 1030.4